Torna al catalogo

ARIANE 2 DEB

AttivoGTO
NORAD 27650·DEBRIS·🇫🇷 France

Lanciato Jan 27, 1989 da Guiana Space Centre

Loading…

TLE

ObsoletoSource: Space-Track

Epoca: Sep 10, 2026, 02:16 UTC

1 27650U 89006AE  26253.09453960 -.00000025  00000-0  47481-3 0  9992
2 27650   8.1011 220.3010 7180559 138.5527 306.9154  2.33375895210104

Traccia ARIANE 2 DEB in tempo reale con AllMySat

Download on the App Store